Terminal Aerodrome Forecast
Issued by NWS Omaha/Valley, NE

Home | Current Version | Previous Version | Text Only | Print | Product List | Glossary Off
Versions: 1 2 3 4 5 6 7 8 9 10 11 12 13 14 15 16 17 18 19 20 21 22 23 24 25 26 27 28 29 30 31 32 33 34 35 36 37 38 39 40 41 42 43 44 45 46 47 48

000
FTUS43 KOAX 242313 AAA
TAFOFK
TAF AMD
KOFK 242313Z 2423/2518 33007KT P6SM SCT050 SCT100
     FM250300 16005KT P6SM BKN080
     FM251000 17009KT P6SM OVC040 PROB30 2512/2516 5SM -RASN OVC020
     FM251600 33013KT 4SM -SN OVC025
      TEMPO 2516/2518 1SM -SN OVC015=

USA.gov is the U.S. government's official web portal to all federal, state and local government web resources and services.